Year,Month,Day,Hour,Minute,Value (Times are PST for temperature in C)
2017,12,11,00,00,1.70
2017,12,11,00,01,1.70
2017,12,11,00,02,1.70
2017,12,11,00,03,1.70
2017,12,11,00,04,1.80
2017,12,11,00,05,1.80
2017,12,11,00,06,1.80
2017,12,11,00,07,1.90
2017,12,11,00,08,1.90
2017,12,11,00,09,1.90
2017,12,11,00,10,1.90
2017,12,11,00,11,1.90
2017,12,11,00,12,1.90
2017,12,11,00,13,1.90
2017,12,11,00,14,1.90
2017,12,11,00,15,1.90
2017,12,11,00,16,1.90
2017,12,11,00,17,1.90
2017,12,11,00,18,1.90
2017,12,11,00,19,2.00
2017,12,11,00,20,2.00
2017,12,11,00,21,2.10
2017,12,11,00,22,2.10
2017,12,11,00,23,2.00
2017,12,11,00,24,2.00
2017,12,11,00,25,1.90
2017,12,11,00,26,1.90
2017,12,11,00,27,1.90
2017,12,11,00,28,1.90
2017,12,11,00,29,1.90
2017,12,11,00,30,1.90
2017,12,11,00,31,1.90
2017,12,11,00,32,2.00
2017,12,11,00,33,2.00
2017,12,11,00,34,2.00
2017,12,11,00,35,2.00
2017,12,11,00,36,2.10
2017,12,11,00,37,2.10
2017,12,11,00,38,2.00
2017,12,11,00,39,2.00
2017,12,11,00,40,1.90
2017,12,11,00,41,1.90
2017,12,11,00,42,1.80
2017,12,11,00,43,1.70
2017,12,11,00,44,1.60
2017,12,11,00,45,1.60
2017,12,11,00,46,1.50
2017,12,11,00,47,1.50
2017,12,11,00,48,1.40
2017,12,11,00,49,1.40
2017,12,11,00,50,1.30
2017,12,11,00,51,1.30
2017,12,11,00,52,1.30
2017,12,11,00,53,1.20
2017,12,11,00,54,1.20
2017,12,11,00,55,1.20
2017,12,11,00,56,1.20
2017,12,11,00,57,1.20
2017,12,11,00,58,1.20
2017,12,11,00,59,1.20
2017,12,11,01,00,1.20
2017,12,11,01,01,1.20
2017,12,11,01,02,1.20
2017,12,11,01,03,1.20
2017,12,11,01,04,1.30
2017,12,11,01,05,1.30
2017,12,11,01,06,1.40
2017,12,11,01,07,1.50
2017,12,11,01,08,1.60
2017,12,11,01,09,1.60
2017,12,11,01,10,1.70
2017,12,11,01,11,1.70
2017,12,11,01,12,1.70
2017,12,11,01,13,1.70
2017,12,11,01,14,1.80
2017,12,11,01,15,1.80
2017,12,11,01,16,1.80
2017,12,11,01,17,1.80
2017,12,11,01,18,1.80
2017,12,11,01,19,1.70
2017,12,11,01,20,1.70
2017,12,11,01,21,1.70
2017,12,11,01,22,1.60
2017,12,11,01,23,1.60
2017,12,11,01,24,1.50
2017,12,11,01,25,1.50
2017,12,11,01,26,1.40
2017,12,11,01,27,1.40
2017,12,11,01,28,1.30
2017,12,11,01,29,1.30
2017,12,11,01,30,1.30
2017,12,11,01,31,1.30
2017,12,11,01,32,1.20
2017,12,11,01,33,1.10
2017,12,11,01,34,1.10
2017,12,11,01,35,1.00
2017,12,11,01,36,0.90
2017,12,11,01,37,0.80
2017,12,11,01,38,0.80
2017,12,11,01,39,0.70
2017,12,11,01,40,0.60
2017,12,11,01,41,0.60
2017,12,11,01,42,0.50
2017,12,11,01,43,0.60
2017,12,11,01,44,0.60
2017,12,11,01,45,0.60
2017,12,11,01,46,0.60
2017,12,11,01,47,0.70
2017,12,11,01,48,0.70
2017,12,11,01,49,0.80
2017,12,11,01,50,0.80
2017,12,11,01,51,0.80
2017,12,11,01,52,0.90
2017,12,11,01,53,0.90
2017,12,11,01,54,0.90
2017,12,11,01,55,1.00
2017,12,11,01,56,0.90
2017,12,11,01,57,0.90
2017,12,11,01,58,0.80
2017,12,11,01,59,0.70
2017,12,11,02,00,0.60
2017,12,11,02,01,0.60
2017,12,11,02,02,0.50
2017,12,11,02,03,0.40
2017,12,11,02,04,0.30
2017,12,11,02,05,0.30
2017,12,11,02,06,0.20
2017,12,11,02,07,0.20
2017,12,11,02,08,0.10
2017,12,11,02,09,0.10
2017,12,11,02,10,0.10
2017,12,11,02,11,0.00
2017,12,11,02,12,0.00
2017,12,11,02,13,0.00
2017,12,11,02,14,0.00
2017,12,11,02,15,0.00
2017,12,11,02,16,0.00
2017,12,11,02,17,0.00
2017,12,11,02,18,0.10
2017,12,11,02,19,0.30
2017,12,11,02,20,0.40
2017,12,11,02,21,0.60
2017,12,11,02,22,0.80
2017,12,11,02,23,0.90
2017,12,11,02,24,1.00
2017,12,11,02,25,1.10
2017,12,11,02,26,1.10
2017,12,11,02,27,1.20
2017,12,11,02,28,1.20
2017,12,11,02,29,1.20
2017,12,11,02,30,1.20
2017,12,11,02,31,1.20
2017,12,11,02,32,1.20
2017,12,11,02,33,1.20
2017,12,11,02,34,1.20
2017,12,11,02,35,1.20
2017,12,11,02,36,1.20
2017,12,11,02,37,1.10
2017,12,11,02,38,1.10
2017,12,11,02,39,1.00
2017,12,11,02,40,0.90
2017,12,11,02,41,0.90
2017,12,11,02,42,0.80
2017,12,11,02,43,0.80
2017,12,11,02,44,0.70
2017,12,11,02,45,0.60
2017,12,11,02,46,0.50
2017,12,11,02,47,0.40
2017,12,11,02,48,0.30
2017,12,11,02,49,0.20
2017,12,11,02,50,0.20
2017,12,11,02,51,0.20
2017,12,11,02,52,0.10
2017,12,11,02,53,0.10
2017,12,11,02,54,0.00
2017,12,11,02,55,0.00
2017,12,11,02,56,0.10
2017,12,11,02,57,0.10
2017,12,11,02,58,0.20
2017,12,11,02,59,0.20
2017,12,11,03,00,0.30
2017,12,11,03,01,0.40
2017,12,11,03,02,0.50
2017,12,11,03,03,0.50
2017,12,11,03,04,0.60
2017,12,11,03,05,0.60
2017,12,11,03,06,0.70
2017,12,11,03,07,0.70
2017,12,11,03,08,0.70
2017,12,11,03,09,0.70
2017,12,11,03,10,0.70
2017,12,11,03,11,0.70
2017,12,11,03,12,0.70
2017,12,11,03,13,0.60
2017,12,11,03,14,0.50
2017,12,11,03,15,0.40
2017,12,11,03,16,0.30
2017,12,11,03,17,0.20
2017,12,11,03,18,0.10
2017,12,11,03,19,0.00
2017,12,11,03,20,0.00
2017,12,11,03,21,-0.10
2017,12,11,03,22,-0.10
2017,12,11,03,23,-0.20
2017,12,11,03,24,-0.20
2017,12,11,03,25,-0.20
2017,12,11,03,26,-0.30
2017,12,11,03,27,-0.30
2017,12,11,03,28,-0.30
2017,12,11,03,29,-0.30
2017,12,11,03,30,-0.30
2017,12,11,03,31,-0.30
2017,12,11,03,32,-0.30
2017,12,11,03,33,-0.30
2017,12,11,03,34,-0.40
2017,12,11,03,35,-0.40
2017,12,11,03,36,-0.40
2017,12,11,03,37,-0.40
2017,12,11,03,38,-0.30
2017,12,11,03,39,-0.30
2017,12,11,03,40,-0.20
2017,12,11,03,41,-0.10
2017,12,11,03,42,-0.10
2017,12,11,03,43,-0.10
2017,12,11,03,44,-0.10
2017,12,11,03,45,-0.10
2017,12,11,03,46,-0.10
2017,12,11,03,47,-0.10
2017,12,11,03,48,-0.20
2017,12,11,03,49,-0.20
2017,12,11,03,50,-0.20
2017,12,11,03,51,-0.20
2017,12,11,03,52,-0.20
2017,12,11,03,53,-0.30
2017,12,11,03,54,-0.30
2017,12,11,03,55,-0.30
2017,12,11,03,56,-0.30
2017,12,11,03,57,-0.40
2017,12,11,03,58,-0.40
2017,12,11,03,59,-0.40
2017,12,11,04,00,-0.40
2017,12,11,04,01,-0.40
2017,12,11,04,02,-0.30
2017,12,11,04,03,-0.30
2017,12,11,04,04,-0.30
2017,12,11,04,05,-0.30
2017,12,11,04,06,-0.30
2017,12,11,04,07,-0.30
2017,12,11,04,08,-0.20
2017,12,11,04,09,-0.20
2017,12,11,04,10,-0.20
2017,12,11,04,11,-0.10
2017,12,11,04,12,-0.10
2017,12,11,04,13,0.00
2017,12,11,04,14,0.00
2017,12,11,04,15,0.10
2017,12,11,04,16,0.10
2017,12,11,04,17,0.10
2017,12,11,04,18,0.10
2017,12,11,04,19,0.00
2017,12,11,04,20,0.00
2017,12,11,04,21,0.00
2017,12,11,04,22,-0.10
2017,12,11,04,23,-0.10
2017,12,11,04,24,-0.20
2017,12,11,04,25,-0.20
2017,12,11,04,26,-0.30
2017,12,11,04,27,-0.30
2017,12,11,04,28,-0.30
2017,12,11,04,29,-0.40
2017,12,11,04,30,-0.30
2017,12,11,04,31,-0.20
2017,12,11,04,32,-0.10
2017,12,11,04,33,0.10
2017,12,11,04,34,0.30
2017,12,11,04,35,0.50
2017,12,11,04,36,0.60
2017,12,11,04,37,0.70
2017,12,11,04,38,0.80
2017,12,11,04,39,0.90
2017,12,11,04,40,0.90
2017,12,11,04,41,1.00
2017,12,11,04,42,1.00
2017,12,11,04,43,1.10
2017,12,11,04,44,1.10
2017,12,11,04,45,1.10
2017,12,11,04,46,1.10
2017,12,11,04,47,1.00
2017,12,11,04,48,0.90
2017,12,11,04,49,0.90
2017,12,11,04,50,0.80
2017,12,11,04,51,0.70
2017,12,11,04,52,0.60
2017,12,11,04,53,0.50
2017,12,11,04,54,0.50
2017,12,11,04,55,0.50
2017,12,11,04,56,0.60
2017,12,11,04,57,0.60
2017,12,11,04,58,0.60
2017,12,11,04,59,0.60
2017,12,11,05,00,0.60
2017,12,11,05,01,0.50
2017,12,11,05,02,0.50
2017,12,11,05,03,0.40
2017,12,11,05,04,0.30
2017,12,11,05,05,0.20
2017,12,11,05,06,0.20
2017,12,11,05,07,0.20
2017,12,11,05,08,0.20
2017,12,11,05,09,0.20
2017,12,11,05,10,0.20
2017,12,11,05,11,0.20
2017,12,11,05,12,0.20
2017,12,11,05,13,0.10
2017,12,11,05,14,0.00
2017,12,11,05,15,-0.10
2017,12,11,05,16,-0.20
2017,12,11,05,17,-0.20
2017,12,11,05,18,-0.30
2017,12,11,05,19,-0.30
2017,12,11,05,20,-0.40
2017,12,11,05,21,-0.50
2017,12,11,05,22,-0.50
2017,12,11,05,23,-0.60
2017,12,11,05,24,-0.60
2017,12,11,05,25,-0.70
2017,12,11,05,26,-0.70
2017,12,11,05,27,-0.80
2017,12,11,05,28,-0.80
2017,12,11,05,29,-0.90
2017,12,11,05,30,-0.80
2017,12,11,05,31,-0.80
2017,12,11,05,32,-0.60
2017,12,11,05,33,-0.50
2017,12,11,05,34,-0.40
2017,12,11,05,35,-0.40
2017,12,11,05,36,-0.40
2017,12,11,05,37,-0.40
2017,12,11,05,38,-0.50
2017,12,11,05,39,-0.50
2017,12,11,05,40,-0.60
2017,12,11,05,41,-0.60
2017,12,11,05,42,-0.60
2017,12,11,05,43,-0.70
2017,12,11,05,44,-0.70
2017,12,11,05,45,-0.70
2017,12,11,05,46,-0.70
2017,12,11,05,47,-0.70
2017,12,11,05,48,-0.70
2017,12,11,05,49,-0.80
2017,12,11,05,50,-0.80
2017,12,11,05,51,-0.70
2017,12,11,05,52,-0.70
2017,12,11,05,53,-0.70
2017,12,11,05,54,-0.80
2017,12,11,05,55,-0.80
2017,12,11,05,56,-0.80
2017,12,11,05,57,-0.70
2017,12,11,05,58,-0.50
2017,12,11,05,59,-0.30
2017,12,11,06,00,-0.10
2017,12,11,06,01,0.10
2017,12,11,06,02,0.30
2017,12,11,06,03,0.40
2017,12,11,06,04,0.50
2017,12,11,06,05,0.50
2017,12,11,06,06,0.60
2017,12,11,06,07,0.50
2017,12,11,06,08,0.40
2017,12,11,06,09,0.30
2017,12,11,06,10,0.20
2017,12,11,06,11,0.10
2017,12,11,06,12,0.00
2017,12,11,06,13,-0.10
2017,12,11,06,14,-0.20
2017,12,11,06,15,-0.20
2017,12,11,06,16,-0.30
2017,12,11,06,17,-0.40
2017,12,11,06,18,-0.50
2017,12,11,06,19,-0.50
2017,12,11,06,20,-0.60
2017,12,11,06,21,-0.60
2017,12,11,06,22,-0.60
2017,12,11,06,23,-0.60
2017,12,11,06,24,-0.60
2017,12,11,06,25,-0.60
2017,12,11,06,26,-0.60
2017,12,11,06,27,-0.70
2017,12,11,06,28,-0.70
2017,12,11,06,29,-0.70
2017,12,11,06,30,-0.70
2017,12,11,06,31,-0.70
2017,12,11,06,32,-0.70
2017,12,11,06,33,-0.70
2017,12,11,06,34,-0.70
2017,12,11,06,35,-0.70
2017,12,11,06,36,-0.70
2017,12,11,06,37,-0.70
2017,12,11,06,38,-0.70
2017,12,11,06,39,-0.70
2017,12,11,06,40,-0.70
2017,12,11,06,41,-0.70
2017,12,11,06,42,-0.70
2017,12,11,06,43,-0.70
2017,12,11,06,44,-0.70
2017,12,11,06,45,-0.70
2017,12,11,06,46,-0.70
2017,12,11,06,47,-0.70
2017,12,11,06,48,-0.80
2017,12,11,06,49,-0.80
2017,12,11,06,50,-0.80
2017,12,11,06,51,-0.90
2017,12,11,06,52,-0.90
2017,12,11,06,53,-1.00
2017,12,11,06,54,-0.90
2017,12,11,06,55,-0.80
2017,12,11,06,56,-0.70
2017,12,11,06,57,-0.50
2017,12,11,06,58,-0.40
2017,12,11,06,59,-0.20
2017,12,11,07,00,-0.10
2017,12,11,07,01,0.00
2017,12,11,07,02,0.10
2017,12,11,07,03,0.20
2017,12,11,07,04,0.30
2017,12,11,07,05,0.40
2017,12,11,07,06,0.40
2017,12,11,07,07,0.50
2017,12,11,07,08,0.60
2017,12,11,07,09,0.60
2017,12,11,07,10,0.70
2017,12,11,07,11,0.70
2017,12,11,07,12,0.70
2017,12,11,07,13,0.70
2017,12,11,07,14,0.70
2017,12,11,07,15,0.60
2017,12,11,07,16,0.60
2017,12,11,07,17,0.60
2017,12,11,07,18,0.60
2017,12,11,07,19,0.60
2017,12,11,07,20,0.70
2017,12,11,07,21,0.80
2017,12,11,07,22,0.90
2017,12,11,07,23,1.00
2017,12,11,07,24,1.00
2017,12,11,07,25,1.10
2017,12,11,07,26,1.20
2017,12,11,07,27,1.20
2017,12,11,07,28,1.20
2017,12,11,07,29,1.20
2017,12,11,07,30,1.20
2017,12,11,07,31,1.10
2017,12,11,07,32,1.00
2017,12,11,07,33,0.80
2017,12,11,07,34,0.60
2017,12,11,07,35,0.40
2017,12,11,07,36,0.20
2017,12,11,07,37,0.10
2017,12,11,07,38,0.10
2017,12,11,07,39,0.10
2017,12,11,07,40,0.10
2017,12,11,07,41,0.20
2017,12,11,07,42,0.30
2017,12,11,07,43,0.40
2017,12,11,07,44,0.40
2017,12,11,07,45,0.40
2017,12,11,07,46,0.40
2017,12,11,07,47,0.40
2017,12,11,07,48,0.30
2017,12,11,07,49,0.40
2017,12,11,07,50,0.40
2017,12,11,07,51,0.40
2017,12,11,07,52,0.40
2017,12,11,07,53,0.50
2017,12,11,07,54,0.50
2017,12,11,07,55,0.60
2017,12,11,07,56,0.60
2017,12,11,07,57,0.50
2017,12,11,07,58,0.50
2017,12,11,07,59,0.30
2017,12,11,08,00,0.20
2017,12,11,08,01,0.20
2017,12,11,08,02,0.20
2017,12,11,08,03,0.20
2017,12,11,08,04,0.20
2017,12,11,08,05,0.30
2017,12,11,08,06,0.40
2017,12,11,08,07,0.60
2017,12,11,08,08,0.60
2017,12,11,08,09,0.70
2017,12,11,08,10,0.90
2017,12,11,08,11,0.90
2017,12,11,08,12,1.00
2017,12,11,08,13,1.10
2017,12,11,08,14,1.20
2017,12,11,08,15,1.30
2017,12,11,08,16,1.40
2017,12,11,08,17,1.50
2017,12,11,08,18,1.50
2017,12,11,08,19,1.50
2017,12,11,08,20,1.60
2017,12,11,08,21,1.50
2017,12,11,08,22,1.50
2017,12,11,08,23,1.40
2017,12,11,08,24,1.40
2017,12,11,08,25,1.30
2017,12,11,08,26,1.20
2017,12,11,08,27,1.20
2017,12,11,08,28,1.10
2017,12,11,08,29,1.10
2017,12,11,08,30,1.00
2017,12,11,08,31,0.90
2017,12,11,08,32,0.80
2017,12,11,08,33,0.80
2017,12,11,08,34,0.70
2017,12,11,08,35,0.60
2017,12,11,08,36,0.60
2017,12,11,08,37,0.50
2017,12,11,08,38,0.50
2017,12,11,08,39,0.50
2017,12,11,08,40,0.50
2017,12,11,08,41,0.50
2017,12,11,08,42,0.60
2017,12,11,08,43,0.60
2017,12,11,08,44,0.60
2017,12,11,08,45,0.70
2017,12,11,08,46,0.70
2017,12,11,08,47,0.80
2017,12,11,08,48,0.90
2017,12,11,08,49,1.00
2017,12,11,08,50,1.10
2017,12,11,08,51,1.10
2017,12,11,08,52,1.10
2017,12,11,08,53,1.20
2017,12,11,08,54,1.20
2017,12,11,08,55,1.30
2017,12,11,08,56,1.30
2017,12,11,08,57,1.40
2017,12,11,08,58,1.50
2017,12,11,08,59,1.50
2017,12,11,09,00,1.60
2017,12,11,09,01,1.60
2017,12,11,09,02,1.60
2017,12,11,09,03,1.60
2017,12,11,09,04,1.60
2017,12,11,09,05,1.60
2017,12,11,09,06,1.60
2017,12,11,09,07,1.60
2017,12,11,09,08,1.70
2017,12,11,09,09,1.70
2017,12,11,09,10,1.80
2017,12,11,09,11,1.90
2017,12,11,09,12,2.00
2017,12,11,09,13,2.10
2017,12,11,09,14,2.20
2017,12,11,09,15,2.30
2017,12,11,09,16,2.40
2017,12,11,09,17,2.40
2017,12,11,09,18,2.50
2017,12,11,09,19,2.50
2017,12,11,09,20,2.60
2017,12,11,09,21,2.60
2017,12,11,09,22,2.60
2017,12,11,09,23,2.70
2017,12,11,09,24,2.80
2017,12,11,09,25,2.80
2017,12,11,09,26,2.90
2017,12,11,09,27,3.00
2017,12,11,09,28,3.00
2017,12,11,09,29,3.10
2017,12,11,09,30,3.10
2017,12,11,09,31,3.20
2017,12,11,09,32,3.20
2017,12,11,09,33,3.20
2017,12,11,09,34,3.20
2017,12,11,09,35,3.20
2017,12,11,09,36,3.20
2017,12,11,09,37,3.20
2017,12,11,09,38,3.20
2017,12,11,09,39,3.20
2017,12,11,09,40,3.20
2017,12,11,09,41,3.20
2017,12,11,09,42,3.20
2017,12,11,09,43,3.10
2017,12,11,09,44,3.10
2017,12,11,09,45,3.10
2017,12,11,09,46,3.10
2017,12,11,09,47,3.10
2017,12,11,09,48,3.20
2017,12,11,09,49,3.20
2017,12,11,09,50,3.30
2017,12,11,09,51,3.40
2017,12,11,09,52,3.40
2017,12,11,09,53,3.50
2017,12,11,09,54,3.60
2017,12,11,09,55,3.70
2017,12,11,09,56,3.80
2017,12,11,09,57,3.80
2017,12,11,09,58,3.90
2017,12,11,09,59,4.00
2017,12,11,10,00,4.00
2017,12,11,10,01,4.10
2017,12,11,10,02,4.20
2017,12,11,10,03,4.30
2017,12,11,10,04,4.30
2017,12,11,10,05,4.40
2017,12,11,10,06,4.50
2017,12,11,10,07,4.60
2017,12,11,10,08,4.60
2017,12,11,10,09,4.70
2017,12,11,10,10,4.70
2017,12,11,10,11,4.80
2017,12,11,10,12,4.90
2017,12,11,10,13,4.90
2017,12,11,10,14,5.00
2017,12,11,10,15,5.10
2017,12,11,10,16,5.20
2017,12,11,10,17,5.30
2017,12,11,10,18,5.30
2017,12,11,10,19,5.40
2017,12,11,10,20,5.40
2017,12,11,10,21,5.50
2017,12,11,10,22,5.50
2017,12,11,10,23,5.60
2017,12,11,10,24,5.60
2017,12,11,10,25,5.70
2017,12,11,10,26,5.70
2017,12,11,10,27,5.70
2017,12,11,10,28,5.80
2017,12,11,10,29,5.80
2017,12,11,10,30,5.80
2017,12,11,10,31,5.80
2017,12,11,10,32,5.80
2017,12,11,10,33,5.80
2017,12,11,10,34,5.90
2017,12,11,10,35,5.90
2017,12,11,10,36,5.90
2017,12,11,10,37,5.90
2017,12,11,10,38,5.90
2017,12,11,10,39,6.00
2017,12,11,10,40,6.00
2017,12,11,10,41,6.00
2017,12,11,10,42,6.10
2017,12,11,10,43,6.10
2017,12,11,10,44,6.20
2017,12,11,10,45,6.20
2017,12,11,10,46,6.20
2017,12,11,10,47,6.20
2017,12,11,10,48,6.30
2017,12,11,10,49,6.30
2017,12,11,10,50,6.30
2017,12,11,10,51,6.30
2017,12,11,10,52,6.40
2017,12,11,10,53,6.40
2017,12,11,10,54,6.40
2017,12,11,10,55,6.40
2017,12,11,10,56,6.40
2017,12,11,10,57,6.50
2017,12,11,10,58,6.50
2017,12,11,10,59,6.50
2017,12,11,11,00,6.50
2017,12,11,11,01,6.50
2017,12,11,11,02,6.60
2017,12,11,11,03,6.60
2017,12,11,11,04,6.60
2017,12,11,11,05,6.60
2017,12,11,11,06,6.60
2017,12,11,11,07,6.60
2017,12,11,11,08,6.70
2017,12,11,11,09,6.70
2017,12,11,11,10,6.70
2017,12,11,11,11,6.70
2017,12,11,11,12,6.70
2017,12,11,11,13,6.70
2017,12,11,11,14,6.80
2017,12,11,11,15,6.80
2017,12,11,11,16,6.80
2017,12,11,11,17,6.80
2017,12,11,11,18,6.80
2017,12,11,11,19,6.80
2017,12,11,11,20,6.80
2017,12,11,11,21,6.80
2017,12,11,11,22,6.90
2017,12,11,11,23,6.90
2017,12,11,11,24,6.90
2017,12,11,11,25,6.90
2017,12,11,11,26,6.90
2017,12,11,11,27,7.00
2017,12,11,11,28,7.00
2017,12,11,11,29,7.00
2017,12,11,11,30,7.10
2017,12,11,11,31,7.10
2017,12,11,11,32,7.10
2017,12,11,11,33,7.10
2017,12,11,11,34,7.20
2017,12,11,11,35,7.20
2017,12,11,11,36,7.20
2017,12,11,11,37,7.20
2017,12,11,11,38,7.20
2017,12,11,11,39,7.20
2017,12,11,11,40,7.20
2017,12,11,11,41,7.30
2017,12,11,11,42,7.30
2017,12,11,11,43,7.30
2017,12,11,11,44,7.30
2017,12,11,11,45,7.30
2017,12,11,11,46,7.30
2017,12,11,11,47,7.30
2017,12,11,11,48,7.30
2017,12,11,11,49,7.30
2017,12,11,11,50,7.30
2017,12,11,11,51,7.40
2017,12,11,11,52,7.30
2017,12,11,11,53,7.30
2017,12,11,11,54,7.30
2017,12,11,11,55,7.30
2017,12,11,11,56,7.30
2017,12,11,11,57,7.30
2017,12,11,11,58,7.40
2017,12,11,11,59,7.40
2017,12,11,12,00,7.30
2017,12,11,12,01,7.30
2017,12,11,12,02,7.30
2017,12,11,12,03,7.30
2017,12,11,12,04,7.30
2017,12,11,12,05,7.30
2017,12,11,12,06,7.30
2017,12,11,12,07,7.30
2017,12,11,12,08,7.30
2017,12,11,12,09,7.30
2017,12,11,12,10,7.30
2017,12,11,12,11,7.30
2017,12,11,12,12,7.30
2017,12,11,12,13,7.30
2017,12,11,12,14,7.30
2017,12,11,12,15,7.30
2017,12,11,12,16,7.30
2017,12,11,12,17,7.30
2017,12,11,12,18,7.40
2017,12,11,12,19,7.40
2017,12,11,12,20,7.40
2017,12,11,12,21,7.40
2017,12,11,12,22,7.40
2017,12,11,12,23,7.40
2017,12,11,12,24,7.40
2017,12,11,12,25,7.40
2017,12,11,12,26,7.40
2017,12,11,12,27,7.40
2017,12,11,12,28,7.40
2017,12,11,12,29,7.40
2017,12,11,12,30,7.40
2017,12,11,12,31,7.40
2017,12,11,12,32,7.40
2017,12,11,12,33,7.50
2017,12,11,12,34,7.50
2017,12,11,12,35,7.40
2017,12,11,12,36,7.40
2017,12,11,12,37,7.50
2017,12,11,12,38,7.50
2017,12,11,12,39,7.50
2017,12,11,12,40,7.40
2017,12,11,12,41,7.40
2017,12,11,12,42,7.40
2017,12,11,12,43,7.40
2017,12,11,12,44,7.50
2017,12,11,12,45,7.50
2017,12,11,12,46,7.50
2017,12,11,12,47,7.50
2017,12,11,12,48,7.50
2017,12,11,12,49,7.50
2017,12,11,12,50,7.50
2017,12,11,12,51,7.50
2017,12,11,12,52,7.50
2017,12,11,12,53,7.50
2017,12,11,12,54,7.50
2017,12,11,12,55,7.50
2017,12,11,12,56,7.50
2017,12,11,12,57,7.50
2017,12,11,12,58,7.50
2017,12,11,12,59,7.50
2017,12,11,13,00,7.50
2017,12,11,13,01,7.40
2017,12,11,13,02,7.40
2017,12,11,13,03,7.40
2017,12,11,13,04,7.40
2017,12,11,13,05,7.40
2017,12,11,13,06,7.40
2017,12,11,13,07,7.50
2017,12,11,13,08,7.50
2017,12,11,13,09,7.50
2017,12,11,13,10,7.60
2017,12,11,13,11,7.60
2017,12,11,13,12,7.60
2017,12,11,13,13,7.60
2017,12,11,13,14,7.60
2017,12,11,13,15,7.60
2017,12,11,13,16,7.60
2017,12,11,13,17,7.60
2017,12,11,13,18,7.70
2017,12,11,13,19,7.70
2017,12,11,13,20,7.70
2017,12,11,13,21,7.70
2017,12,11,13,22,7.70
2017,12,11,13,23,7.70
2017,12,11,13,24,7.70
2017,12,11,13,25,7.70
2017,12,11,13,26,7.70
2017,12,11,13,27,7.70
2017,12,11,13,28,7.70
2017,12,11,13,29,7.70
2017,12,11,13,30,7.70
2017,12,11,13,31,7.70
2017,12,11,13,32,7.60
2017,12,11,13,33,7.60
2017,12,11,13,34,7.60
2017,12,11,13,35,7.60
2017,12,11,13,36,7.70
2017,12,11,13,37,7.70
2017,12,11,13,38,7.70
2017,12,11,13,39,7.80
2017,12,11,13,40,7.80
2017,12,11,13,41,7.80
2017,12,11,13,42,7.70
2017,12,11,13,43,7.70
2017,12,11,13,44,7.70
2017,12,11,13,45,7.70
2017,12,11,13,46,7.70
2017,12,11,13,47,7.70
2017,12,11,13,48,7.60
2017,12,11,13,49,7.60
2017,12,11,13,50,7.60
2017,12,11,13,51,7.60
2017,12,11,13,52,7.60
2017,12,11,13,53,7.60
2017,12,11,13,54,7.60
2017,12,11,13,55,7.60
2017,12,11,13,56,7.60
2017,12,11,13,57,7.60
2017,12,11,13,58,7.60
2017,12,11,13,59,7.60
2017,12,11,14,00,7.60
2017,12,11,14,01,7.60
2017,12,11,14,02,7.60
2017,12,11,14,03,7.60
2017,12,11,14,04,7.60
2017,12,11,14,05,7.60
2017,12,11,14,06,7.60
2017,12,11,14,07,7.60
2017,12,11,14,08,7.60
2017,12,11,14,09,7.60
2017,12,11,14,10,7.60
2017,12,11,14,11,7.60
2017,12,11,14,12,7.60
2017,12,11,14,13,7.70
2017,12,11,14,14,7.70
2017,12,11,14,15,7.70
2017,12,11,14,16,7.70
2017,12,11,14,17,7.70
2017,12,11,14,18,7.80
2017,12,11,14,19,7.80
2017,12,11,14,20,7.80
2017,12,11,14,21,7.80
2017,12,11,14,22,7.80
2017,12,11,14,23,7.70
2017,12,11,14,24,7.70
2017,12,11,14,25,7.70
2017,12,11,14,26,7.70
2017,12,11,14,27,7.70
2017,12,11,14,28,7.70
2017,12,11,14,29,7.70
2017,12,11,14,30,7.70
2017,12,11,14,31,7.60
2017,12,11,14,32,7.60
2017,12,11,14,33,7.60
2017,12,11,14,34,7.50
2017,12,11,14,35,7.50
2017,12,11,14,36,7.50
2017,12,11,14,37,7.50
2017,12,11,14,38,7.50
2017,12,11,14,39,7.50
2017,12,11,14,40,7.50
2017,12,11,14,41,7.50
2017,12,11,14,42,7.50
2017,12,11,14,43,7.50
2017,12,11,14,44,7.50
2017,12,11,14,45,7.50
2017,12,11,14,46,7.50
2017,12,11,14,47,7.40
2017,12,11,14,48,7.40
2017,12,11,14,49,7.40
2017,12,11,14,50,7.30
2017,12,11,14,51,7.30
2017,12,11,14,52,7.30
2017,12,11,14,53,7.20
2017,12,11,14,54,7.20
2017,12,11,14,55,7.20
2017,12,11,14,56,7.20
2017,12,11,14,57,7.10
2017,12,11,14,58,7.10
2017,12,11,14,59,7.10
2017,12,11,15,00,7.10
2017,12,11,15,01,7.10
2017,12,11,15,02,7.10
2017,12,11,15,03,7.10
2017,12,11,15,04,7.10
2017,12,11,15,05,7.10
2017,12,11,15,06,7.10
2017,12,11,15,07,7.10
2017,12,11,15,08,7.10
2017,12,11,15,09,7.10
2017,12,11,15,10,7.10
2017,12,11,15,11,7.20
2017,12,11,15,12,7.20
2017,12,11,15,13,7.20
2017,12,11,15,14,7.20
2017,12,11,15,15,7.20
2017,12,11,15,16,7.20
2017,12,11,15,17,7.20
2017,12,11,15,18,7.20
2017,12,11,15,19,7.20
2017,12,11,15,20,7.20
2017,12,11,15,21,7.10
2017,12,11,15,22,7.10
2017,12,11,15,23,7.10
2017,12,11,15,24,7.00
2017,12,11,15,25,7.00
2017,12,11,15,26,6.90
2017,12,11,15,27,6.90
2017,12,11,15,28,6.90
2017,12,11,15,29,6.80
2017,12,11,15,30,6.80
2017,12,11,15,31,6.80
2017,12,11,15,32,6.70
2017,12,11,15,33,6.70
2017,12,11,15,34,6.70
2017,12,11,15,35,6.60
2017,12,11,15,36,6.60
2017,12,11,15,37,6.60
2017,12,11,15,38,6.60
2017,12,11,15,39,6.50
2017,12,11,15,40,6.50
2017,12,11,15,41,6.50
2017,12,11,15,42,6.40
2017,12,11,15,43,6.40
2017,12,11,15,44,6.40
2017,12,11,15,45,6.40
2017,12,11,15,46,6.40
2017,12,11,15,47,6.40
2017,12,11,15,48,6.40
2017,12,11,15,49,6.30
2017,12,11,15,50,6.30
2017,12,11,15,51,6.30
2017,12,11,15,52,6.30
2017,12,11,15,53,6.30
2017,12,11,15,54,6.20
2017,12,11,15,55,6.20
2017,12,11,15,56,6.20
2017,12,11,15,57,6.20
2017,12,11,15,58,6.20
2017,12,11,15,59,6.10
2017,12,11,16,00,6.10
2017,12,11,16,01,6.00
2017,12,11,16,02,6.00
2017,12,11,16,03,6.00
2017,12,11,16,04,5.90
2017,12,11,16,05,5.90
2017,12,11,16,06,5.90
2017,12,11,16,07,5.80
2017,12,11,16,08,5.80
2017,12,11,16,09,5.80
2017,12,11,16,10,5.80
2017,12,11,16,11,5.80
2017,12,11,16,12,5.70
2017,12,11,16,13,5.70
2017,12,11,16,14,5.70
2017,12,11,16,15,5.60
2017,12,11,16,16,5.60
2017,12,11,16,17,5.60
2017,12,11,16,18,5.60
2017,12,11,16,19,5.50
2017,12,11,16,20,5.50
2017,12,11,16,21,5.40
2017,12,11,16,22,5.40
2017,12,11,16,23,5.40
2017,12,11,16,24,5.30
2017,12,11,16,25,5.30
2017,12,11,16,26,5.30
2017,12,11,16,27,5.30
2017,12,11,16,28,5.30
2017,12,11,16,29,5.30
2017,12,11,16,30,5.20
2017,12,11,16,31,5.20
2017,12,11,16,32,5.20
2017,12,11,16,33,5.20
2017,12,11,16,34,5.20
2017,12,11,16,35,5.10
2017,12,11,16,36,5.10
2017,12,11,16,37,5.10
2017,12,11,16,38,5.00
2017,12,11,16,39,5.00
2017,12,11,16,40,5.00
2017,12,11,16,41,4.90
2017,12,11,16,42,4.90
2017,12,11,16,43,4.90
2017,12,11,16,44,4.90
2017,12,11,16,45,4.90
2017,12,11,16,46,4.80
2017,12,11,16,47,4.80
2017,12,11,16,48,4.80
2017,12,11,16,49,4.80
2017,12,11,16,50,4.70
2017,12,11,16,51,4.70
2017,12,11,16,52,4.70
2017,12,11,16,53,4.70
2017,12,11,16,54,4.70
2017,12,11,16,55,4.60
2017,12,11,16,56,4.60
2017,12,11,16,57,4.60
2017,12,11,16,58,4.60
2017,12,11,16,59,4.60
2017,12,11,17,00,4.60
2017,12,11,17,01,4.60
2017,12,11,17,02,4.50
2017,12,11,17,03,4.50
2017,12,11,17,04,4.40
2017,12,11,17,05,4.40
2017,12,11,17,06,4.30
2017,12,11,17,07,4.30
2017,12,11,17,08,4.30
2017,12,11,17,09,4.30
2017,12,11,17,10,4.30
2017,12,11,17,11,4.20
2017,12,11,17,12,4.20
2017,12,11,17,13,4.20
2017,12,11,17,14,4.20
2017,12,11,17,15,4.10
2017,12,11,17,16,4.10
2017,12,11,17,17,4.00
2017,12,11,17,18,4.00
2017,12,11,17,19,3.90
2017,12,11,17,20,3.80
2017,12,11,17,21,3.80
2017,12,11,17,22,3.80
2017,12,11,17,23,3.70
2017,12,11,17,24,3.70
2017,12,11,17,25,3.60
2017,12,11,17,26,3.50
2017,12,11,17,27,3.40
2017,12,11,17,28,3.40
2017,12,11,17,29,3.30
2017,12,11,17,30,3.30
2017,12,11,17,31,3.30
2017,12,11,17,32,3.30
2017,12,11,17,33,3.30
2017,12,11,17,34,3.20
2017,12,11,17,35,3.20
2017,12,11,17,36,3.20
2017,12,11,17,37,3.10
2017,12,11,17,38,3.10
2017,12,11,17,39,3.00
2017,12,11,17,40,3.00
2017,12,11,17,41,3.00
2017,12,11,17,42,3.00
2017,12,11,17,43,3.00
2017,12,11,17,44,3.00
2017,12,11,17,45,3.00
2017,12,11,17,46,3.00
2017,12,11,17,47,3.00
2017,12,11,17,48,3.00
2017,12,11,17,49,3.00
2017,12,11,17,50,3.00
2017,12,11,17,51,3.00
2017,12,11,17,52,3.10
2017,12,11,17,53,3.10
2017,12,11,17,54,3.10
2017,12,11,17,55,3.10
2017,12,11,17,56,3.00
2017,12,11,17,57,3.00
2017,12,11,17,58,3.00
2017,12,11,17,59,2.90